User: anonymous   Login
Location: Caltech
(34.1382°N, 118.1253°W)
Time: 16:54:29
(UTC-08:00)
Language:

Cosmos 44 Rocket - Orbit

View from above orbital plane
View from above orbital plane
View from above satellite
View from above satellite

Ground track
Ground track

The orbit data is extracted from the following two-line orbital elements,

1 00877U 64053B   18052.84210414 -.00000074  00000-0  98997-5 0  9999
2 00877  65.0774 282.9210 0065095 357.8261   2.2544 14.59323368837946
Epoch (UTC): 21 February 2018 20:12:37
Eccentricity: 0.0065095
inclination: 65.0774°
perigee height: 649 km
apogee height: 741 km
right ascension of ascending node: 282.9210°
argument of perigee: 357.8261°
revolutions per day: 14.59323368
mean anomaly at epoch: 2.2544°
orbit number at epoch: 83794

The dashed part of the orbit path shows where the satellite is in the earth's shadow,  

DLR